Location: Alfortville
(48.8058°N, 2.4204°E)
Time: 00:00:50
(UTC+00:00)

SR - Visible Passes

Search period start: 18 April 2026 00:00
Search period end: 28 April 2026 00:00
Orbit: 570 x 850 km, 66.7° (Epoch: 17 April)

Date Brightness Start Highest point End Pass type
(mag) Time Alt. Az. Time Alt. Az. Time Alt. Az.
18 Apr ? 19:23:40 10° NNW 19:26:52 16° NNE 19:30:09 10° ENE visible
18 Apr ? 21:04:44 10° NNW 21:09:57 43° NE 21:12:06 30° E visible
18 Apr ? 22:46:29 10° NW 22:51:08 42° W 22:51:08 42° W visible
19 Apr ? 20:09:50 10° NNW 20:14:26 27° NE 20:18:30 13° E visible
19 Apr ? 21:51:11 10° NW 21:56:45 82° WSW 21:57:32 67° SSE visible
19 Apr ? 23:34:27 10° WNW 23:36:33 15° W 23:36:33 15° W visible
20 Apr ? 19:14:58 10° NNW 19:18:43 18° NNE 19:22:35 10° ENE visible
20 Apr ? 20:56:07 10° NNW 21:01:33 57° NE 21:03:57 33° ESE visible
20 Apr ? 22:38:12 10° NW 22:42:59 31° WSW 22:42:59 31° WSW visible
21 Apr ? 20:01:10 10° NNW 20:06:08 34° NE 20:10:25 14° E visible
21 Apr ? 21:42:42 10° NW 21:48:10 59° WSW 21:49:27 48° SSW visible
21 Apr ? 23:27:51 10° W 23:28:29 10° W 23:28:29 10° W visible
22 Apr ? 20:47:31 10° NNW 20:53:05 76° NE 20:55:57 31° SE visible
22 Apr ? 22:30:04 10° WNW 22:34:19 22° WSW 22:34:59 22° WSW visible
23 Apr ? 19:52:30 10° NNW 19:57:47 44° NE 20:02:29 14° ESE visible
23 Apr ? 21:34:17 10° NW 21:39:33 43° WSW 21:41:31 32° SSW visible
24 Apr ? 20:38:58 10° NW 20:44:33 80° WSW 20:48:06 24° SSE visible
24 Apr ? 22:22:18 10° WNW 22:25:30 16° WSW 22:27:08 14° SW visible
25 Apr ? 19:43:52 10° NNW 19:49:21 58° NE 19:54:43 12° SE visible
25 Apr ? 21:25:59 10° NW 21:30:51 31° WSW 21:33:46 20° SSW visible
26 Apr ? 20:30:28 10° NW 20:35:58 58° WSW 20:40:26 16° SSE visible
26 Apr ? 22:15:56 10° W 22:16:38 10° W 22:17:20 10° WSW visible
27 Apr ? 19:35:16 10° NNW 19:40:53 78° NE 19:46:39 10° SE visible
27 Apr ? 21:17:52 10° WNW 21:22:05 22° WSW 21:26:13 11° SSW visible
